Date String (YYYY-MM-DD hh:mm:ss) UTC,Instrument flags,Ambient pressure (hPa),Sample flow (lpm),Bypass flow (lpm),Sample temperature (°C),Ambient temperature (°C),ASC tube jacket temperature (°C),LED temperature (°C),Box temperature (°C),Sample RH (%),Span deviation,Mass concentration (μg/m³),Mass concentration (μg/m³),Mass concentration (μg/m³)
DateTimeUTC,F1_M11,P_M11,Q1_M11,Q2_M11,T1_M11,T2_M11,T3_M11,T4_M11,T5_M11,U1_M11,ZSPAN_M11,X0_M11,X2_M11,X1_M11
2022-03-28 23:00:00,,0815.7,5.00,0.00,30.0,28.3,00.0,38.9,31.7,05.5,0000.0,0011.17,0003.50,0002.58
2022-03-28 23:01:00,,0815.7,5.00,0.00,29.9,26.5,00.0,38.9,31.4,05.2,0000.0,0011.14,0003.51,0002.52
2022-03-28 23:02:00,,0815.8,5.00,0.00,29.8,26.4,00.0,38.8,31.3,05.1,0000.0,0011.02,0003.43,0002.39
2022-03-28 23:03:00,,0815.7,4.99,0.00,29.8,26.8,00.0,38.8,31.3,05.0,0000.0,0010.29,0003.33,0002.25
2022-03-28 23:04:00,,0815.7,5.01,0.00,29.7,27.2,00.0,38.7,31.4,05.1,0000.0,0009.73,0003.24,0002.12
2022-03-28 23:05:00,,0815.7,5.00,0.00,29.7,27.5,00.0,38.7,31.4,05.1,0000.0,0008.79,0003.11,0001.93
2022-03-28 23:06:00,,0815.7,5.00,0.00,29.8,27.8,00.0,38.7,31.4,05.0,0000.0,0008.46,0002.90,0001.77
2022-03-28 23:07:00,,0815.6,5.00,0.00,29.8,28.1,00.0,38.7,31.5,04.9,0000.0,0007.91,0002.66,0001.61
2022-03-28 23:08:00,,0815.6,4.99,0.00,29.8,28.3,00.0,38.7,31.5,04.9,0000.0,0007.51,0002.49,0001.48
2022-03-28 23:09:00,,0815.6,5.02,0.00,29.8,28.4,00.0,38.7,31.5,05.0,0000.0,0006.73,0002.30,0001.35
2022-03-28 23:10:00,,0815.6,4.98,0.00,29.8,28.5,00.0,38.7,31.6,05.0,0000.0,0005.27,0002.10,0001.22
2022-03-28 23:11:00,,0815.7,5.01,0.00,29.8,28.7,00.0,38.7,31.5,04.9,0000.0,0005.59,0001.93,0001.09
2022-03-28 23:12:00,,0816.1,5.00,0.00,29.8,28.8,00.0,38.7,31.5,04.9,0000.0,0005.01,0001.71,0000.98
2022-03-28 23:13:00,,0816.0,4.99,0.00,29.8,28.9,00.0,38.7,31.6,04.8,0000.0,0004.89,0001.65,0000.91
2022-03-28 23:14:00,,0816.0,5.02,0.00,29.9,28.9,00.0,38.8,31.6,04.9,0000.0,0004.91,0001.62,0000.88
2022-03-28 23:15:00,,0815.9,4.99,0.00,29.9,29.0,00.0,38.8,31.6,05.2,0000.0,0004.87,0001.56,0000.86
2022-03-28 23:16:00,,0816.0,4.99,0.00,29.9,29.0,00.0,38.8,31.6,05.0,0000.0,0005.08,0001.62,0000.88
2022-03-28 23:17:00,,0815.9,5.02,0.00,29.9,29.0,00.0,38.8,31.7,04.8,0000.0,0005.37,0001.72,0000.91
2022-03-28 23:18:00,,0815.6,4.98,0.00,29.9,29.0,00.0,38.8,31.6,04.9,0000.0,0005.48,0001.75,0000.93
2022-03-28 23:19:00,,0815.7,5.01,0.00,29.9,27.4,00.0,38.8,31.3,04.7,0000.0,0005.50,0001.79,0000.96
2022-03-28 23:20:00,,0815.6,4.99,0.00,29.7,26.1,00.0,38.8,31.1,04.6,0000.0,0005.46,0001.79,0000.98
2022-03-28 23:21:00,,0815.6,5.01,0.00,29.7,26.3,00.0,38.8,31.1,04.7,0000.0,0005.34,0001.78,0000.98
2022-03-28 23:22:00,,0815.6,4.99,0.00,29.6,26.6,00.0,38.7,31.1,04.7,0000.0,0003.72,0001.78,0000.98
2022-03-28 23:23:00,,0815.6,5.00,0.00,29.6,27.0,00.0,38.7,31.2,04.7,0000.0,0003.67,0001.78,0000.99
2022-03-28 23:24:00,,0815.6,5.01,0.00,29.6,27.4,00.0,38.6,31.2,04.8,0000.0,0003.52,0001.75,0000.99
2022-03-28 23:25:00,,0815.5,5.00,0.00,29.6,27.7,00.0,38.6,31.2,04.7,0000.0,0003.84,0001.76,0001.00
2022-03-28 23:26:00,,0816.0,5.01,0.00,29.6,27.9,00.0,38.6,31.2,04.7,0000.0,0004.14,0001.84,0001.00
2022-03-28 23:27:00,,0815.9,4.99,0.00,29.6,28.1,00.0,38.6,31.3,04.9,0000.0,0004.12,0001.84,0000.99
2022-03-28 23:28:00,,0816.0,5.02,0.00,29.6,28.3,00.0,38.6,31.4,04.9,0000.0,0003.88,0001.76,0000.96
2022-03-28 23:29:00,,0816.0,4.99,0.00,29.6,28.4,00.0,38.6,31.4,05.0,0000.0,0003.80,0001.75,0000.94
2022-03-28 23:30:00,,0816.0,5.00,0.00,29.6,28.5,00.0,38.6,31.4,05.0,0000.0,0003.97,0001.74,0000.91
2022-03-28 23:31:00,,0815.9,5.03,0.00,29.7,28.6,00.0,38.6,31.4,04.9,0000.0,0003.97,0001.71,0000.89
2022-03-28 23:32:00,,0816.0,4.99,0.00,29.7,28.8,00.0,38.6,31.5,05.1,0000.0,0004.01,0001.70,0000.89
2022-03-28 23:33:00,,0815.5,4.99,0.00,29.7,28.8,00.0,38.6,31.5,05.3,0000.0,0003.86,0001.66,0000.90
2022-03-28 23:34:00,,0815.4,5.01,0.00,29.8,28.9,00.0,38.6,31.5,05.2,0000.0,0003.73,0001.62,0000.90
2022-03-28 23:35:00,,0815.3,5.01,0.00,29.8,29.0,00.0,38.7,31.5,05.0,0000.0,0003.64,0001.58,0000.90
2022-03-28 23:36:00,,0815.8,5.00,0.00,29.8,29.0,00.0,38.7,31.6,05.2,0000.0,0003.46,0001.59,0000.91
2022-03-28 23:37:00,,0816.0,4.99,0.00,29.8,29.0,00.0,38.7,31.6,05.0,0000.0,0003.72,0001.64,0000.94
2022-03-28 23:38:00,,0815.7,5.00,0.00,29.8,29.0,00.0,38.7,31.6,04.9,0000.0,0004.56,0001.67,0000.96
2022-03-28 23:39:00,,0815.6,5.01,0.00,29.8,29.0,00.0,38.7,31.6,05.0,0000.0,0004.57,0001.66,0000.97
2022-03-28 23:40:00,,0815.3,4.99,0.00,29.8,28.0,00.0,38.7,31.4,05.0,0000.0,0004.61,0001.70,0000.98
2022-03-28 23:41:00,,0815.3,5.02,0.00,29.7,25.7,00.0,38.7,30.9,04.9,0000.0,0004.54,0001.72,0001.00
2022-03-28 23:42:00,,0815.2,4.99,0.00,29.5,25.0,00.0,38.7,30.7,04.9,0000.0,0004.51,0001.74,0001.01
2022-03-28 23:43:00,,0815.3,5.00,0.00,29.4,25.4,00.0,38.6,30.7,04.9,0000.0,0004.65,0001.81,0001.03
2022-03-28 23:44:00,,0815.4,5.01,0.00,29.4,25.9,00.0,38.5,30.8,04.9,0000.0,0004.96,0001.90,0001.04
2022-03-28 23:45:00,,0815.3,4.99,0.00,29.4,26.4,00.0,38.5,30.9,04.8,0000.0,0005.36,0001.92,0001.05
2022-03-28 23:46:00,,0815.3,5.01,0.00,29.4,26.9,00.0,38.5,31.0,04.8,0000.0,0005.71,0001.90,0001.04
2022-03-28 23:47:00,,0815.3,4.99,0.00,29.4,27.3,00.0,38.4,31.1,04.9,0000.0,0005.36,0001.81,0001.03
2022-03-28 23:48:00,,0815.3,5.00,0.00,29.4,27.6,00.0,38.4,31.1,05.0,0000.0,0005.21,0001.70,0001.01
2022-03-28 23:49:00,,0815.3,5.01,0.00,29.4,27.8,00.0,38.4,31.2,04.9,0000.0,0004.23,0001.57,0000.98
2022-03-28 23:50:00,,0815.3,4.99,0.00,29.5,28.0,00.0,38.4,31.2,04.8,0000.0,0004.42,0001.58,0000.97
2022-03-28 23:51:00,,0815.2,4.99,0.00,29.5,28.2,00.0,38.4,31.2,05.0,0000.0,0004.54,0001.62,0000.97
2022-03-28 23:52:00,,0815.2,5.01,0.00,29.5,28.3,00.0,38.4,31.3,04.9,0000.0,0004.40,0001.55,0000.96
2022-03-28 23:53:00,,0815.3,4.99,0.00,29.5,28.4,00.0,38.4,31.3,04.8,0000.0,0005.10,0001.53,0000.95
2022-03-28 23:54:00,,0815.2,5.00,0.00,29.6,28.5,00.0,38.5,31.3,04.8,0000.0,0005.72,0001.50,0000.95
2022-03-28 23:55:00,,0815.2,5.02,0.00,29.6,28.6,00.0,38.5,31.4,04.9,0000.0,0006.95,0001.43,0000.93
2022-03-28 23:56:00,,0815.2,4.98,0.00,29.6,28.7,00.0,38.5,31.4,04.9,0000.0,0006.85,0001.44,0000.92
2022-03-28 23:57:00,,0815.2,4.99,0.00,29.7,28.8,00.0,38.5,31.5,04.8,0000.0,0006.38,0001.52,0000.93
2022-03-28 23:58:00,,0815.2,5.01,0.00,29.7,28.9,00.0,38.5,31.5,04.8,0000.0,0006.55,0001.59,0000.95
2022-03-28 23:59:00,,0815.2,5.00,0.00,29.8,28.9,00.0,38.6,31.6,04.9,0000.0,0006.56,0001.65,0000.95
